Starlink 1202

operational
NORAD ID: 45183 Int'l Des: 2020-012 Owner: SPXS Country: US Constellation: starlink
LEOCIRCULARSTARLINK_TYPE

About Starlink 1202

Description loading...

Live Position

Loading 3D Globe...

Upcoming Passes

Altitude History

Altitude vs Time

uPlot chart will show altitude changes over time

Two-Line Element Set

1 45183U 20012F 25304.59570157 -.00000217 00000-0 43582-5 0 9997
2 45183 53.0559 266.1474 0001518 100.7293 259.3867 15.06402872315382
Epoch: Oct 31, 2025 • Age: 5 hours

Current Status

Altitude 547.0 km
Velocity 7.59 km/s
Sub-Earth Point 18.69°N, 93.63°E
Launch Date Feb 17, 2020
Age 5.7 years
Type internet

Technical Details

Classification Payload
Mass 260.00 kg
Dry Mass 248.00 kg
Total Mass 260.00 kg
Length 0.20 m
Diameter 2.80 m
Span 9.00 m
Shape Box + pan
Manufacturer SPXS
Bus Type Starlink
Phase Status In Orbit
Owner/State SPXS/US

Large Constellations

Loading constellations...